Location: Celina Elementary School
(33.3262°N, 96.7767°W)
Time: 07:25:55
(UTC+00:00)

Cosmos 2151 - Pass Details

Date: 26 November 2021
Orbit: 579 x 601 km, 82.5° (Epoch: 19 January)

Event Time Altitude Azimuth Distance (km) Brightness Sun altitude
Rises 12:26:51 0° 213° (SSW) 2,814 6.3 -8.9°
Reaches altitude 10° 12:29:20 10° 226° (SW) 1,921 5.3 -8.4°
Maximum altitude 12:32:51 25° 282° (WNW) 1,215 4.0 -7.7°
Drops below altitude 10° 12:36:25 10° 338° (NNW) 1,942 5.2 -7.0°
Sets 12:38:58 0° 352° (N) 2,851 6.2 -6.6°
